Regional Weather Roundup
Issued by NWS

Home | Current Version | Previous Version | Graphics & Text | Print | Product List | Glossary On
Versions: 1 2 3 4 5 6 7 8 9 10 11 12 13 14 15 16 17 18 19 20 21 22 23 24 25 26 27 28 29 30 31 32 33 34 35 36 37 38 39 40 41 42 43 44 45 46 47 48 49 50
000
ASUS43 KFSD 310902
RWRSD

WEATHER ROUNDUP FOR SOUTH DAKOTA
NATIONAL WEATHER SERVICE SIOUX FALLS SD
400 AM CDT TUE MAY 31 2016

NOTE: "FAIR" INDICATES FEW OR NO CLOUDS BELOW 12,000 FEET WITH NO
SIGNIFICANT WEATHER AND/OR OBSTRUCTIONS TO VISIBILITY.


SDZ001>005-009-010-012>017-311000-
NORTHWEST AND NORTH CENTRAL SOUTH DAKOTA

CITY           SKY/WX    TMP DP  RH WIND       PRES   REMARKS
BUFFALO          N/A     50  37  61 W30G44    29.88F
FAITH            N/A     48  37  65 W17       29.91S
MOBRIDGE       CLOUDY    53  47  79 NW9       29.82R
$$

SDZ012>016-024>037-041>051-057-063-072>074-311000-
SOUTHWEST AND SOUTH CENTRAL SOUTH DAKOTA

CITY           SKY/WX    TMP DP  RH WIND       PRES   REMARKS
RAPID CTY ARPT CLOUDY    48  33  56 NW13      30.01F
PIERRE         CLOUDY    52  47  83 W9        29.91R
CUSTER         CLOUDY    41  24  51 CALM      30.07S
ELLSWORTH AFB  CLOUDY    47  33  58 W8        30.00S
PHILIP         CLEAR     49  43  80 W12       29.96R
PINE RIDGE     PTCLDY    45  42  89 CALM      30.05S
WINNER         FAIR      54  48  80 W9        29.96R
$$

SDZ004>011-016>023-039-040-311000-
NORTHEAST SOUTH DAKOTA

CITY           SKY/WX    TMP DP  RH WIND       PRES   REMARKS
ABERDEEN       CLOUDY    58  54  86 W9        29.79R
WATERTOWN      CLOUDY    59  56  89 W16G24    29.79R
BROOKINGS      LGT RAIN  60  59  96 W8        29.80R
SISSETON         N/A     60  59  96 S9        29.76R
$$

SDZ017-020-022-023-036>040-048>070-311000-
SOUTHEAST SOUTH DAKOTA

CITY           SKY/WX    TMP DP  RH WIND       PRES   REMARKS
SIOUX FALLS    CLOUDY    62  59  90 S7        29.83R
HURON          MOCLDY    58  55  90 W12       29.84R
MITCHELL       PTCLDY    60  56  86 W12       29.87R
YANKTON        CLOUDY    63  57  82 W10       29.87R
$$

ABBREVIATIONS USED IN REMARKS
   TC - TEMPERATURE IN CELSIUS
  WCI - WIND CHILL INDEX
   HX - HEAT INDEX
  VSB - VISIBILITY





USA.gov is the U.S. government's official web portal to all federal, state and local government web resources and services.